Location: Newark
(40.7066°N, 111.8219°W)
Time: 16:30:55
(UTC+00:00)

S-56A Canister/Altair - Visible Passes

Search period start: 14 November 2019 00:00
Search period end: 24 November 2019 00:00
Orbit: 634 x 2498 km, 38.9° (Epoch: 13 November)

Date Brightness Start Highest point End Pass type
(mag) Time Alt. Az. Time Alt. Az. Time Alt. Az.
14 Nov 8.1 02:31:40 10° WSW 02:38:49 54° SSE 02:38:49 54° SSE visible
15 Nov 8.3 01:58:25 10° SW 02:06:13 52° SSE 02:07:58 40° ESE visible
15 Nov 10.2 04:03:48 10° W 04:05:24 17° W 04:05:24 17° W visible
16 Nov 8.7 01:25:07 10° SW 01:33:30 49° SSE 01:37:06 24° E visible
16 Nov 9.3 03:30:38 10° W 03:34:31 33° WSW 03:34:31 33° WSW visible
17 Nov 9.0 00:51:47 10° SW 01:00:43 47° SSE 01:06:13 13° E visible
17 Nov 8.3 02:57:22 10° W 03:03:38 59° WSW 03:03:38 59° WSW visible
18 Nov 7.9 02:24:01 10° WSW 02:32:06 74° S 02:32:44 68° SE visible
18 Nov 10.7 04:29:49 10° W 04:30:10 11° W 04:30:10 11° W visible
19 Nov 8.3 01:50:34 10° WSW 01:59:23 72° S 02:01:50 40° E visible
19 Nov 10.0 03:56:39 10° W 03:59:16 22° W 03:59:16 22° W visible
20 Nov 8.5 01:17:04 10° WSW 01:26:35 70° S 01:30:56 23° E visible
20 Nov 9.1 03:23:23 10° W 03:28:22 40° W 03:28:22 40° W visible
21 Nov 8.8 00:43:29 10° WSW 00:53:44 68° SSE 01:00:02 12° E visible
21 Nov 8.2 02:50:01 10° W 02:57:27 70° SW 02:57:27 70° SW visible
22 Nov 8.0 02:16:34 10° W 02:25:19 77° S 02:26:34 60° ESE visible
22 Nov 10.5 04:22:47 10° W 04:24:00 15° W 04:24:00 15° W visible
23 Nov 8.4 01:43:01 10° W 01:52:32 79° S 01:55:41 34° E visible
23 Nov 9.8 03:49:29 10° W 03:53:07 27° W 03:53:07 27° W visible
